Temp
12 13 13 12 13 14 13 14 14 14 14 14 13 13 13 12 11 11 11 12 12 12
14 14 14 14 14 14 14 14 14 14 14 14 14 13 13 13 12 11 12 12 12 12
13 14 14 14 14 14 14 14 14 14 14 14 14 13 12 12 12 12 12 12 12 11
13 13 13 13 13 14 14 14 14 14 14 14 14 13 12 12 12 12 12 11 11 11
12 12 12 12 12 12 12 13 13 13 12 12 12 12 12 12 11 11 11 11 10 10
11 11 11 11 11 11 11 11 11 11 11 11 10 10 10 10 10 10 10 10 10 9
11 10 10 10 10 10 10 10 10 10 10 9 9 9 9 9 9 9 9 9 9 8
9 9 9 9 9 9 9 8 9 9 9 9 8 8 8 8 8 8 8 8 8 7
8 8 8 8 8 7 7 8 7 7 7 7 7 7 8 7 7 7 7 7 7 7
8 8 8 7 7 7 7 7 7 7 7 7 6 7 7 6 6 6 6 6 6 6
7 7 7 7 7 6 6 6 6 6 6 6 6 6 6 6 6 6 6 5 5 4
7 7 7 7 7 6 5 5 6 6 5 5 5 6 6 6 5 5 5 4 4 4
5 6 6 6 6 5 5 5 5 5 5 5 4 5 5 5 4 5 5 5 4 4
2 3 3 4 5 5 4 4 4 5 5 5 4 4 4 4 4 4 4 5 4 4
Height
1478 1481 1480 1485 1486 1487 1487 1488 1491 1493 1495 1495 1496 1496 1498 1499 1501 1502 1507 1508 1509 1510
1475 1477 1478 1479 1479 1483 1483 1483 1485 1487 1488 1490 1491 1491 1493 1493 1496 1498 1501 1505 1506 1506
1471 1473 1474 1476 1477 1478 1480 1480 1481 1482 1484 1484 1485 1488 1488 1490 1491 1495 1497 1497 1502 1502
1471 1470 1472 1472 1473 1473 1474 1475 1477 1477 1477 1479 1479 1481 1482 1486 1487 1489 1491 1493 1495 1497
1468 1468 1468 1468 1468 1468 1470 1471 1471 1471 1471 1475 1475 1476 1477 1479 1482 1485 1487 1488 1489 1491
1465 1464 1463 1464 1464 1465 1465 1467 1467 1466 1468 1469 1471 1472 1473 1477 1478 1481 1482 1484 1485 1486
1461 1461 1460 1460 1460 1460 1463 1463 1463 1463 1463 1465 1466 1467 1468 1472 1474 1475 1477 1478 1480 1480
1458 1457 1456 1457 1457 1458 1459 1459 1459 1459 1460 1460 1461 1463 1464 1467 1469 1471 1473 1473 1474 1475
1456 1455 1455 1453 1453 1455 1456 1456 1456 1457 1458 1457 1457 1459 1460 1462 1465 1466 1467 1469 1468 1468
1453 1453 1453 1451 1451 1452 1452 1451 1451 1452 1452 1452 1452 1454 1455 1458 1460 1461 1463 1464 1463 1463
1449 1449 1451 1450 1448 1446 1446 1447 1446 1447 1446 1445 1447 1448 1450 1453 1453 1455 1456 1458 1460 1460
1447 1448 1447 1445 1442 1441 1439 1441 1442 1441 1440 1441 1440 1443 1445 1446 1447 1449 1451 1452 1453 1452
1448 1443 1441 1436 1436 1436 1436 1434 1434 1436 1436 1435 1436 1436 1439 1440 1442 1442 1443 1445 1446 1447
1439 1437 1435 1434 1433 1430 1428 1428 1429 1428 1430 1429 1430 1430 1433 1434 1435 1438 1437 1438 1438 1440
Wind_Speed
26 24 23 22 21 19 21 21 21 22 25 25 25 22 21 23 23 24 26 21 19 20
17 19 19 19 18 20 20 21 21 20 21 25 25 23 22 21 21 22 24 22 22 21
12 13 15 16 17 18 20 21 21 23 23 23 24 24 24 25 25 26 26 24 22 21
10 11 13 14 16 17 19 20 21 22 23 24 24 26 28 30 28 29 27 25 23 22
5 8 10 13 16 16 17 19 20 20 21 23 25 28 29 28 27 27 26 25 23 23
9 10 11 13 14 15 16 17 18 19 21 22 24 25 26 26 26 26 26 25 24 23
11 12 13 14 15 15 16 17 18 19 20 22 23 24 25 25 25 25 24 23 22 22
14 13 13 15 16 16 16 17 17 18 20 21 22 23 23 24 24 23 23 22 21 20
16 16 17 16 16 16 17 18 18 19 20 21 22 23 22 22 23 22 22 21 20 19
16 17 18 18 19 19 19 20 20 21 22 22 22 21 21 21 22 22 21 21 19 18
20 19 18 19 20 21 22 22 22 22 22 23 24 21 22 22 22 22 21 21 20 19
23 23 22 21 20 21 24 25 24 23 23 23 23 22 22 22 23 22 21 21 21 20
20 22 24 22 22 23 25 27 26 26 25 24 25 24 23 23 24 23 23 22 22 21
17 19 20 22 22 21 24 26 28 28 27 28 28 28 27 27 27 26 25 23 22 20
Wind_Direction
243 237 244 243 241 238 241 245 249 250 252 248 245 242 233 236 233 231 238 233 235 239
224 231 237 240 244 249 249 251 255 252 243 238 242 236 231 221 222 217 219 233 242 245
225 232 240 244 245 249 252 250 251 248 245 242 240 233 225 221 224 228 233 236 244 247
235 239 240 242 242 245 250 253 250 247 246 243 237 227 226 228 231 232 235 239 242 251
281 269 262 257 255 252 249 248 247 246 244 241 238 232 231 229 229 234 238 240 244 251
298 289 280 275 269 263 259 255 251 245 241 238 238 235 232 232 234 236 239 242 245 246
307 292 283 277 272 269 264 258 252 245 241 237 235 233 233 235 234 235 238 241 243 247
325 306 291 279 273 266 259 255 251 246 240 235 230 228 228 232 236 237 238 240 241 246
337 326 309 290 273 265 259 255 251 248 243 237 235 234 235 235 235 236 239 240 243 246
326 325 313 300 283 269 260 256 253 250 249 249 246 243 239 238 239 239 241 243 246 248
316 314 309 296 286 272 265 262 259 257 252 248 246 241 239 239 241 243 243 245 247 250
304 301 300 299 293 277 267 265 264 262 255 249 248 244 241 240 244 244 244 245 246 249
290 291 292 294 291 282 266 259 261 262 258 253 251 250 248 248 249 250 249 248 249 249
299 294 290 289 289 286 274 265 259 256 252 252 251 254 250 248 250 255 256 254 250 249